Chanute, KS

6:22 AM CST on November 23, 2017 (GMT -0600)
Chanute Martin Johnson

Weather History for KCNU - October, 2011

Change the Weather History Date:

Thursday, October 27, 2011

  Actual Average Record
Temperature  
Mean Temperature 47 °F 55 °F  
Max Temperature 59 °F 66 °F 87 °F (1927)
Min Temperature 35 °F 44 °F 24 °F (1957)
Degree Days  
Heating Degree Days 18 11  
Month to date heating degree days 156 195  
Since 1 July heating degree days 206 242  
Cooling Degree Days 0 0  
Month to date cooling degree days 55 31  
Year to date cooling degree days 2059 1528  
Moisture  
Dew Point 34 °F    
Average Humidity 55    
Maximum Humidity 75    
Minimum Humidity 35    
Precipitation  
Precipitation T in 0.09 in 2.23 in (1919)
Month to date precipitation 0.31 3.27  
Year to date precipitation 23.21 37.43  
Sea Level Pressure  
Sea Level Pressure 30.12 in    
Wind  
Wind Speed 7 mph (NNE)    
Max Wind Speed 12 mph    
Max Gust Speed 30 mph    
Visibility 10 miles    
Events      
T = Trace of Precipitation, MM = Missing Value Source: NWS Daily Summary

Daily Weather History Graph

Daily Weather History Graph

Search for Another Location

Airport or City:

Trip Planner

Search our weather history database for the weather conditions in past years. The results will help you decide how hot, cold, wet, or windy it might be!

Date:

Astronomy

Oct. 27, 2011 Rise Set
Actual Time 7:41 AM CDT 6:29 PM CDT
Civil Twilight 7:14 AM CDT 6:56 PM CDT
Nautical Twilight 6:44 AM CDT 7:26 PM CDT
Astronomical Twilight 6:13 AM CDT 7:57 PM CDT
Moon 8:43 AM CDT (10/27) 7:02 PM CDT (10/27)
Length of Visible Light 11h 41m
Length of Day
10h 47m
New Moon, 1% of the Moon is Illuminated
Oct 27
New Moon
Nov 2
First Quarter
Nov 10
Full
Nov 18
Last Quarter
Nov 25
New

Hourly Weather History & Observations

Time (CDT) Temp. Windchill Dew Point Humidity Pressure Visibility Wind Dir Wind Speed Gust Speed Precip Events Conditions
12:52 AM 50.0 °F - 39.0 °F 66% 30.06 in 10.0 mi North 9.2 mph - N/A   Overcast
1:52 AM 50.0 °F - 39.0 °F 66% 30.09 in 10.0 mi North 10.4 mph - N/A   Overcast
2:52 AM 50.0 °F - 37.0 °F 61% 30.09 in 10.0 mi North 10.4 mph - N/A   Overcast
3:52 AM 48.9 °F - 37.0 °F 64% 30.08 in 10.0 mi North 11.5 mph 23.0 mph N/A   Overcast
4:52 AM 48.9 °F - 37.0 °F 64% 30.08 in 10.0 mi North 9.2 mph - N/A   Overcast
5:52 AM 46.9 °F - 37.9 °F 71% 30.08 in 10.0 mi North 9.2 mph - 0.00 in   Overcast
6:52 AM 46.9 °F - 37.9 °F 71% 30.11 in 10.0 mi North 6.9 mph - N/A   Overcast
7:52 AM 46.0 °F 42.5 °F 37.9 °F 73% 30.11 in 10.0 mi NNE 6.9 mph - N/A   Partly Cloudy
8:52 AM 46.0 °F 43.1 °F 37.9 °F 73% 30.15 in 10.0 mi North 5.8 mph - N/A   Clear
9:52 AM 48.0 °F - 37.0 °F 66% 30.14 in 10.0 mi North 9.2 mph - N/A   Clear
10:52 AM 53.1 °F - 37.0 °F 55% 30.14 in 10.0 mi NNE 6.9 mph - N/A   Clear
11:52 AM 54.0 °F - 36.0 °F 51% 30.14 in 10.0 mi Variable 6.9 mph - N/A   Partly Cloudy
12:52 PM 55.0 °F - 35.1 °F 47% 30.14 in 10.0 mi North 9.2 mph - N/A   Scattered Clouds
1:52 PM 55.9 °F - 35.1 °F 45% 30.12 in 10.0 mi NNE 5.8 mph - N/A   Scattered Clouds
2:52 PM 55.9 °F - 34.0 °F 44% 30.10 in 10.0 mi North 8.1 mph - N/A   Scattered Clouds
3:52 PM 57.0 °F - 30.9 °F 37% 30.09 in 10.0 mi NNE 9.2 mph - N/A   Partly Cloudy
4:52 PM 55.9 °F - 32.0 °F 40% 30.10 in 10.0 mi NNE 8.1 mph - N/A   Partly Cloudy
5:52 PM 55.0 °F - 28.9 °F 37% 30.11 in 10.0 mi NNE 8.1 mph - N/A   Clear
6:52 PM 53.6 °F - 28.4 °F 38% 30.14 in 10.0 mi NNE 8.1 mph - N/A   Partly Cloudy
7:52 PM 53.1 °F - 28.9 °F 40% 30.16 in 10.0 mi NE 5.8 mph - N/A   Clear
8:52 PM 50.0 °F - 28.9 °F 44% 30.17 in 10.0 mi NE 4.6 mph - N/A   Clear
9:52 PM 48.9 °F - 28.9 °F 46% 30.17 in 10.0 mi NNE 3.5 mph - N/A   Clear
10:52 PM 43.0 °F 41.3 °F 30.0 °F 60% 30.18 in 10.0 mi North 3.5 mph - N/A   Clear
11:52 PM 36.0 °F - 28.0 °F 73% 30.19 in 10.0 mi Calm Calm - N/A   Clear